www.pogodaiklimat.ru

Погода и климат >> Архив погоды >> Индия >> Kakinada


ПОГОДА в Kakinada

  • Прогноз погоды в Kakinada
  • Монитор погоды в Kakinada
  • Климат города

АРХИВ ПОГОДЫ в Kakinada

Время (UTC), дата Ветер
(напр.,м/с)
 
Видим.   Явления Облачность Т
(С)
Тd
(С)
f
(%)
Тe
(С)
Тes
(С)
Комфортность P
(гПа)
Po
(гПа)
Тmin
(С)
Tmax
(С)
R
(мм)
R24
(мм)
S
(см)
09 6.12 В 2 10 км 9/3 600 м
[Sc Ac trans Ci fib]
+29.0 +22.2 67 +38 +41 очень
душно
1009.9 1009.0
12 6.12 В 2 10 км 6/3 600 м
[Sc Ac trans]
+28.0 +22.1 70 +36 +36 очень
душно
1010.2 1009.3 +30.3
15 6.12 штиль 0 4000 м 6/3 600 м
[Sc Ac trans]
+27.2 +22.5 76 +36 +36 очень
душно
1012.0 1011.1
18 6.12 штиль 0 4000 м 8/3 600 м
[Sc Ac trans]
+26.6 +22.8 80 +35 +35 очень
душно
1012.0 1011.1
21 6.12 штиль 0 4000 м 8/3 600 м
[Sc Ac trans]
+26.0 +23.1 84 +35 +35 очень
душно
1011.1 1010.2
00 7.12 штиль 0 4000 м 5/1 600 м
[Sc Ac trans Ci fib]
+24.8 +22.1 85 +32 +32 очень
душно
1011.4 1010.5
03 7.12 штиль 0 10 км 5/1 600 м
[Sc Ac trans Ci fib]
+26.0 +22.1 79 +34 +37 очень
душно
1013.4 1012.5 +24.4 +30.3
06 7.12 штиль 0 10 км 6/3 600 м
[Sc Ac trans Ci fib]
+29.0 +22.9 70 +39 +48 очень
душно
1013.1 1012.2
09 7.12 штиль 0 10 км 5/1 600 м
[Sc Ac trans Ci fib]
+29.8 +22.1 63 +38 +46 очень
душно
1010.3 1009.4
12 7.12 штиль 0 4000 м 3/1 600 м
[Sc Ci fib]
+27.6 +21.6 70 +35 +35 очень
душно
1011.0 1010.1 +30.1
15 7.12 штиль 0 4000 м 3/1 600 м
[Sc Ci fib]
+27.0 +21.9 74 +35 +35 очень
душно
1013.0 1012.1
18 7.12 штиль 0 4000 м 5/3 600 м
[Sc Ac trans]
+25.8 +22.2 81 +34 +34 очень
душно
1013.6 1012.7
21 7.12 штиль 0 4000 м 5/1 600 м
[Sc Ac trans Ci sp]
+25.0 +21.7 82 +32 +32 очень
душно
1012.9 1012.0
00 8.12 штиль 0 4000 м мгла 5/3 600 м
[Sc Ac trans]
+23.8 +21.7 88 +30 +30 очень
душно
1013.1 1012.2
03 8.12 штиль 0 4000 м мгла 5/1 600 м
[Sc Ac trans Ci fib]
+25.6 +21.7 79 +33 +36 очень
душно
1015.3 1014.4 +23.5 +30.1
06 8.12 В 2 10 км 5/1 600 м
[Sc Ci sp]
+29.6 +21.2 61 +37 +49 очень
душно
1014.7 1013.8
09 8.12 В 2 10 км 6/3 600 м
[Sc Ac trans Ci sp]
+30.0 +21.7 61 +38 +43 очень
душно
1011.8 1010.9
12 8.12 В 2 10 км ясно +27.4 +19.7 63 +33 +33 очень
душно
1012.2 1011.3 +30.4
15 8.12 штиль 0 4000 м 4/1 600 м
[Sc Ci sp]
+25.8 +20.3 72 +32 +32 очень
душно
1014.1 1013.2
18 8.12 штиль 0 4000 м 3/0
[Ci sp]
+25.0 +20.7 77 +31 +31 очень
душно
1013.9 1013.0
21 8.12 штиль 0 4000 м ясно +24.2 +19.2 74 +29 +29 душно 1012.1 1011.2
00 9.12 штиль 0 4000 м мгла ясно +23.8 +20.4 81 +29 +29 душно 1012.9 1012.0
03 9.12 штиль 0 4000 м мгла ясно +24.8 +21.5 82 +32 +37 очень
душно
1014.6 1013.7 +23.5 +30.4
06 9.12 штиль 0 10 км 3/3 600 м
[Sc]
+29.0 +20.9 62 +36 +48 очень
душно
1013.5 1012.6
09 9.12 штиль 0 10 км 4/1 600 м
[Sc Ci fib]
+29.6 +20.6 58 +36 +45 очень
душно
1010.5 1009.6
12 9.12 штиль 0 10 км 10/4 600 м
[Sc Ac As]
+28.0 +21.4 67 +35 +35 очень
душно
1010.9 1010.0 +29.8
15 9.12 штиль 0 4000 м 10/4 600 м
[Sc Ac As]
+27.0 +21.9 74 +35 +35 очень
душно
1012.9 1012.0
18 9.12 штиль 0 4000 м 6/3 600 м
[Sc Ac trans]
+25.0 +19.4 71 +30 +30 душно 1012.9 1012.0
21 9.12 штиль 0 4000 м 6/3 600 м
[Sc Ac trans]
+24.0 +18.7 72 +29 +29 душно 1011.9 1011.0
00 10.12 штиль 0 4000 м 6/3 600 м
[Sc Ac trans]
+22.8 +19.4 81 +29 +29 очень
душно
1011.9 1011.0
03 10.12 штиль 0 10 км 10/3 600 м
[Sc Ac As]
+24.0 +19.3 75 +29 +30 душно 1014.5 1013.6 +22.6 +29.8
06 10.12 штиль 0 10 км 3/3 600 м
[Sc]
+29.0 +19.9 58 +35 +47 очень
душно
1013.7 1012.8
09 10.12 штиль 0 10 км ясно +29.6 +19.9 56 +36 +46 очень
душно
1010.7 1009.8
12 10.12 В 2 10 км 4/0
[Ci sp]
+27.0 +20.3 67 +33 +33 очень
душно
1011.5 1010.6 +29.8
15 10.12 штиль 0 4000 м 3/0
[Ci sp]
+25.6 +20.1 72 +32 +32 очень
душно
1013.5 1012.6
18 10.12 В 2 4000 м 4/0
[Ci sp]
+25.0 +20.4 76 +31 +31 очень
душно
1013.2 1012.3
21 10.12 штиль 0 4000 м 3/0
[Ci sp]
+24.0 +19.7 77 +29 +29 душно 1012.0 1011.1
00 11.12 штиль 0 2000 м мгла 9/0
[Cs]
+23.0 +19.9 83 +30 +30 очень
душно
1012.1 1011.2
03 11.12 штиль 0 4000 м мгла 1/0
[Ci sp]
+24.2 +19.2 74 +29 +34 душно 1014.6 1013.7 +22.8 +29.8
06 11.12 В 1 10 км 3/0
[Ci fib]
+29.6 +19.9 56 +36 +50 очень
душно
1013.8 1012.9
09 11.12 В 1 10 км 6/1 600 м
[Sc Ac trans Ci fib]
+29.6 +18.8 52 +35 +41 очень
душно
1011.2 1010.3
12 11.12 штиль 0 4000 м 3/1 600 м
[Sc Ac trans]
+27.2 +20.9 68 +34 +34 очень
душно
1011.4 1010.5 +30.1
15 11.12 штиль 0 4000 м 5/3 600 м
[Sc Ac trans]
+25.0 +20.4 76 +31 +31 очень
душно
1013.6 1012.7
18 11.12 штиль 0 4000 м 3/1 600 м
[Sc Ci fib]
+24.4 +20.4 78 +30 +30 очень
душно
1013.9 1013.0
21 11.12 штиль 0 4000 м 4/1 600 м
[Sc Ci fib]
+23.8 +20.4 81 +29 +29 душно 1012.7 1011.8
00 12.12 штиль 0 4000 м 4/1 600 м
[Sc Ac trans Ci fib]
+22.4 +18.3 78 +28 +28 душно 1013.3 1012.4
03 12.12 штиль 0 10 км 4/1 600 м
[Sc Ac trans Ci fib]
+24.8 +20.2 76 +31 +35 очень
душно
1015.2 1014.3 +22.0 +30.1
06 12.12 В 2 10 км 3/1 600 м
[Sc Ac trans]
+29.4 +21.0 61 +37 +47 очень
душно
1013.9 1013.0
09 12.12 В 2 10 км 4/1 600 м
[Sc Ci fib]
+29.8 +20.8 59 +37 +44 очень
душно
1011.1 1010.2
12 12.12 В 2 10 км 3/1 600 м
[Sc Ac trans]
+28.0 +20.1 62 +34 +34 очень
душно
1011.9 1011.0 +30.9
15 12.12 штиль 0 4000 м 3/1 600 м
[Sc Ci fib]
+27.0 +21.9 74 +35 +35 очень
душно
1014.1 1013.2
18 12.12 штиль 0 4000 м 3/1 600 м
[Sc Ci fib]
+25.6 +20.1 72 +32 +32 очень
душно
1014.9 1014.0
21 12.12 штиль 0 4000 м 3/1 600 м
[Sc Ci fib]
+24.2 +19.2 74 +29 +29 душно 1013.9 1013.0
00 13.12 штиль 0 4000 м 4/1 600 м
[Sc Ac trans]
+24.2 +20.5 80 +30 +30 очень
душно
1013.5 1012.6
03 13.12 штиль 0 10 км 3/1 600 м
[Sc Ac trans]
+25.0 +20.7 77 +31 +35 очень
душно
1016.1 1015.2 +23.7 +30.9
06 13.12 В 2 10 км 4/1 600 м
[Sc Ac trans]
+29.4 +22.3 66 +38 +47 очень
душно
1015.1 1014.2

 

Местоположение метеостанции Kakinada (Andhra Pradesh, Индия): широта 16.95 долгота 82.23 высота над уровнем моря 8 м.

В архиве по умолчанию представлена погода в Kakinada за последнюю неделю. Архивные данные за месяц целиком и за предыдущие месяцы, начиная с января 2011 года, Вы можете получить, выбрав интересующий диапазон дат из раскрывающегося списка и нажав кнопку "Ввод!".


*Определитесь, кто Вы:
робот инопланетянин человек

Внимание! Время в таблицах - всемирное. Для получения местного времени необходимо прибавить поправку, которая в Kakinada равна 5.5 ч.

Смотрите также архив погоды в соседних городах и на ближайших метеорологических станциях:

Погода в Tuni (Andhra Pradesh, Индия) (56 км)
Погода в Narsapur (Andhra Pradesh, Индия) (81 км)
Погода в Visakhapatnam (Andhra Pradesh, Индия) (136 км)
Погода в Visakhapatnam Walt (Andhra Pradesh, Индия) (141 км)
Погода в Machilipatnam (Andhra Pradesh, Индия) (142 км)
Погода в Gannavaram (Andhra Pradesh, Индия) (159 км)
Погода в Bhadrachalam (Telangana, Индия) (164 км)
Погода в Nandigama (Andhra Pradesh, Индия) (208 км)
Погода в Koraput (Orissa, Индия) (214 км)
Погода в Bapatla (Andhra Pradesh, Индия) (221 км)

Пояснения к столбцам:

Ветер - указаны скорость ветра в м/с - средняя за 10 мин, порывы в срок и между сроками (в фигурных скобках) и направление, откуда дует ветер: С - северный, СВ - северо-восточный, В - восточный, ЮВ - юго-восточный, Ю - южный, ЮЗ - юго-западный, З - западный, СЗ - северо-западный.
Видимость - горизонтальная дальность видимости в метрах или километрах. При видимости от 1 до 10 км при отсутствии осадков обычно наблюдается дымка, при ухудшении видимости до 1 км и менее - туман. В сухую погоду видимость может ухудшаться дымом, пылью или мглою.
Явления - указаны атмосферные явления, наблюдавшиеся в срок или в последний час перед сроком; фигурными скобками обозначены явления, наблюдавшиеся между сроками (за 1-3 часа до срока); квадратными скобками обозначены град или гололедные отложения с указанием их диаметра в мм.
Облачность - указаны через наклонную черту общая и нижняя облачность в баллах и высота нижней границы облаков в метрах; квадратными скобками обозначены формы облаков: Ci - перистые, Cs - перисто-слоистые, Cc - перисто-кучевые, Ac - высококучевые, As - высокослоистые, Sc - слоисто-кучевые, Ns - слоисто-дождевые, Cu - кучевые, Cb - кучево-дождевые. Подробнее классификацию облаков см. в Атласе облаков (PDF).
T - Температура воздуха - температура, измеренная на высоте 2 м над землей.
Td - Температура точки росы - температура, при понижении до которой содержащийся в воздухе водяной пар достигнет насыщения.
f - Относительная влажность воздуха - влажноcть воздуха, измеренная на высоте 2 м над землей.
Te - Эффективная температура - температура, которую ощущает одетый по сезону человек в тени. Характеристика душности погоды. При расчете учитывается влияние влажности воздуха и скорости ветра на теплоощущения человека.
Tes - Эффективная температура на солнце - температура, которую ощущает человек, с поправкой на солнечный нагрев. Характеристика знойности погоды. Зависит от высоты солнца над горизонтом, облачности и скорости ветра. Ночью, в пасмурную погоду, а также при ветре 12 м/с и более поправка равна нулю.
P - Атмосферное давление - приведенное к уровню моря атмосферное давление.
Po - Атмосферное давление - измеренное на уровне метеостанции атмосферное давление.
Tmin - Минимальная температура - минимум температуры воздуха на высоте 2 м над землей.
Tmax - Максимальная температура - максимум температуры воздуха на высоте 2 м над землей.
R - Количество осадков - Количество выпавших осадков за период времени, мм. При наведении курсора мыши на число - период времени, за который выпало указанное количество осадков.
R24 - Количество осадков - Количество выпавших осадков за 24 часа, мм.
S - Снежный покров - Высота снежного покрова, см. При наведении курсора мыши на число - состояние снежного покрова и степень покрытия местности в баллах.